Regional Weather Roundup
Issued by NWS Green Bay, WI

Home | Current Version | Previous Version | Text Only | Print | Product List | Glossary On
Versions: 1 2 3 4 5 6 7 8 9 10 11 12 13 14 15 16 17 18 19 20 21 22 23 24 25 26 27 28 29 30 31 32 33 34 35 36 37 38 39 40 41 42 43 44 45 46 47 48 49 50
000
ASUS43 KGRB 291759
RWRGRB

NORTH-CENTRAL AND NORTHEAST WISCONSIN REGIONAL WEATHER ROUNDUP
NATIONAL WEATHER SERVICE GREEN BAY WI
100 PM CDT FRI AUG 29 2014

WIZ005-009-010>012-018-019-291900-
NORTH CENTRAL WISCONSIN

CITY           SKY/WX    TMP DP  RH WIND       PRES   REMARKS
IRONWOOD       NOT AVBL
MANITOWISH WTR NOT AVBL
ARBOR VITAE    NOT AVBL
EAGLE RIVER    NOT AVBL
LAND O LAKES   NOT AVBL
RHINELANDER    CLOUDY    63  62  97 S8        29.90F
PHILLIPS       NOT AVBL
ANTIGO         NOT AVBL
TOMAHAWK       NOT AVBL
MERRILL        NOT AVBL
$$

WIZ013-073-291900-
NORTHEAST WISCONSIN

CITY           SKY/WX    TMP DP  RH WIND       PRES   REMARKS
IRON MOUNTAIN  CLOUDY    64  62  93 S6        29.89F FOG
MARINETTE      CLOUDY    72  66  83 S7        29.88F
$$

WIZ017-030-035>037-045-291900-
CENTRAL WISCONSIN

CITY           SKY/WX    TMP DP  RH WIND       PRES   REMARKS
MEDFORD        NOT AVBL
WAUSAU         CLOUDY    67  65  93 SE6       29.87F FOG
MOSINEE        CLOUDY    66  66 100 S10       29.90F FOG
MARSHFIELD     CLOUDY    73  67  81 S9        29.87F
WISC RAPIDS    CLOUDY    75  68  78 S9        29.89F
STEVENS POINT  NOT AVBL
WAUPACA        NOT AVBL
SHAWANO        CLOUDY    74  68  83 SW5       29.89F
CLINTONVILLE   NOT AVBL
$$

WIZ038-039-048-051-291900-
FOX VALLEY

CITY           SKY/WX    TMP DP  RH WIND       PRES   REMARKS
NWS GREEN BAY  PTSUNNY   80  71  74 SW8G18    29.88F
APPLETON       PTSUNNY   81  70  69 SW14      29.90F
OSHKOSH        SUNNY     82  72  71 S14       29.88F
FOND DU LAC    SUNNY     81  70  69 S14G21    29.89F
$$

WIZ022-050-052-291900-
EAST CENTRAL WISCONSIN

CITY           SKY/WX    TMP DP  RH WIND       PRES   REMARKS
STURGEON BAY   CLOUDY    70  64  83 S18       29.92S
MANITOWOC      NOT AVBL
SHEBOYGAN      SUNNY     80  71  74 S10       29.91F
$$

LMZ563-521-522-541>543-291900-
LAKESHORE

STATION/POSITION TIME  TEMP    WIND        PRES    VSBY  WAVE
                       AIR SEA DIR/SP/G                  HT/PER
                 (UTC) (F)     (DEG/KT/KT) (MB)    (MI)  (FT/S)
SHEBOYGAN LKSHOR 1700   68 69  170/ 18/ 19 1013.3F
KEWAUNEE LKSHORE 1700   67     170/ 17/ 21 1012.1F
NORTHPORT PIER   1700   67     160/ 10/ 18 1012.9F
N MID LAKE BUOY  1700   64 65  170/ 16/ 19 1013.9F         3/ 4
S GREEN BAY BUOY 1700   72     VRB  8/ 10  1013.3F
SISTER BAY LKSHO 1700   67     180/ 19/ 26   N/A
CHAMBERS ISLAND  1700   68     140/  6/ 15 1012.9F
MENOMINEE LKSHOR 1700   69     170/  9/ 12 1013.1F
$$



USA.gov is the U.S. government's official web portal to all federal, state and local government web resources and services.